Location: Unspecified
(41.5000°N, 0.0000°E)
Time: 02:31:40
(UTC+00:00)

A-11 Canister half - Pass Details

Date: 28 June 2019
Orbit: 1526 x 1683 km, 47.3° (Epoch: 16 August)

Event Time Altitude Azimuth Distance (km) Brightness Sun altitude
Exits shadow 02:41:50 20° 224° (SW) 3,073 9.9 -15.5°
Maximum altitude 02:49:01 70° 146° (SE) 1,639 9.1 -14.7°
Drops below altitude 10° 02:58:18 10° 65° (ENE) 3,709 12.1 -13.6°
Sets 03:01:20 0° 63° (ENE) 4,686 12.9 -13.2°
